GFSNGP_925_rhum_249.txt.gz
RH
74 70 68 82 98 85 88 72 85 75 73 59 58 63 55 48 48 46 47 52 53 54 71 76 78 75 77 83 79 86 89 97 100 98 98 100 100 99 97 91 88 83 76 68
95 60 60 63 69 61 87 91 100 99 98 73 69 58 58 63 62 63 62 62 62 59 59 80 83 80 79 87 90 88 94 99 97 96 97 97 97 98 93 90 84 89 84 70
88 76 72 88 66 57 63 57 81 95 82 64 68 64 61 68 63 63 64 66 68 67 64 58 78 81 86 89 92 97 95 100 100 100 100 100 100 100 100 100 100 91 86 89
88 85 97 76 64 66 72 88 85 78 77 73 73 68 62 64 66 63 63 71 71 73 72 69 76 86 87 93 94 97 98 100 100 100 100 100 100 100 100 98 96 100 99 96
94 87 90 90 87 87 89 89 84 82 74 70 68 69 75 66 64 64 62 70 72 75 78 78 80 90 96 96 94 96 96 98 100 100 100 100 100 100 100 100 99 100 97 91
67 94 88 89 78 68 70 94 89 89 81 86 72 88 81 68 62 63 61 66 71 74 82 94 95 95 96 96 95 91 89 87 92 94 95 96 98 100 100 96 95 91 92 78
88 84 87 84 69 54 93 92 83 75 84 90 91 87 71 64 64 62 60 64 68 73 85 92 95 98 97 96 93 92 92 94 95 97 99 99 98 98 99 98 98 96 89 90
84 95 96 90 59 74 90 75 80 80 78 84 78 75 70 70 70 70 68 72 74 70 76 82 92 90 93 95 95 98 99 100 100 100 100 100 97 98 97 99 100 98 97 98
96 96 95 93 95 93 94 90 86 89 82 82 80 78 77 76 70 76 70 67 65 63 66 76 76 76 77 72 94 98 100 100 100 100 100 100 100 99 99 99 98 97 93 88
95 88 90 91 82 84 88 93 90 79 80 80 87 80 82 80 69 78 81 61 60 58 56 54 61 77 76 75 85 97 100 100 100 98 98 98 99 97 82 56 61 69 74 80
95 88 89 78 91 93 88 78 81 79 79 87 85 84 86 87 82 90 93 82 75 66 79 84 81 81 93 98 98 99 99 98 98 99 97 85 63 52 52 55 53 59 75 74
99 97 97 92 92 93 93 93 92 91 86 84 92 92 88 88 93 95 96 98 94 98 100 100 100 100 100 99 98 98 98 98 98 97 98 95 84 80 59 60 52 49 52 54
97 96 96 94 91 92 95 95 94 92 93 94 91 96 94 94 96 97 98 98 98 98 99 98 98 98 98 99 96 97 98 98 97 97 97 98 97 94 98 96 89 86 90 97
94 95 92 93 95 95 96 94 95 95 95 96 97 93 95 94 93 95 97 99 97 97 98 100 98 99 99 97 96 97 97 98 97 97 96 97 97 98 97 98 99 100 99 96
93 94 96 95 91 93 95 92 92 94 94 93 95 96 96 94 94 97 98 96 97 96 97 97 97 98 98 96 96 96 97 98 96 95 95 91 87 96 98 97 97 96 92 90
94 86 91 93 93 92 92 90 92 93 92 93 94 94 97 97 97 97 98 96 96 96 98 97 96 97 98 97 97 97 96 97 97 97 97 97 97 97 97 96 88 87 84 80
93 87 86 81 90 92 93 94 94 94 94 94 95 96 96 96 96 96 96 96 96 96 97 96 97 96 97 97 97 98 98 97 98 97 97 96 96 96 96 94 88 84 82 77
94 91 91 89 91 88 85 83 83 89 94 97 96 96 95 95 95 96 96 96 95 95 96 96 96 95 96 96 96 96 97 96 96 96 96 96 96 96 92 87 83 78 78 87
85 83 84 80 83 84 84 84 86 84 85 90 94 96 96 96 96 97 96 95 96 96 96 96 96 96 96 96 96 96 96 96 96 96 96 97 95 91 87 83 82 81 87 96
74 75 76 81 79 81 84 91 90 90 91 92 90 90 94 97 96 95 95 96 96 97 96 96 95 96 97 96 96 96 96 96 96 96 96 93 92 89 86 86 88 92 92 93
83 83 84 86 82 86 92 96 94 95 96 97 94 94 95 94 96 96 96 95 95 96 95 96 96 95 96 96 95 96 96 96 95 94 96 89 90 88 87 93 93 93 95 94
91 90 90 95 91 94 94 90 96 96 98 98 98 98 98 95 96 94 94 94 95 97 95 96 95 96 96 96 95 96 96 96 96 95 95 94 93 88 86 88 91 93 95 94
90 88 91 96 89 95 84 89 96 95 94 94 98 100 100 98 98 98 91 86 95 94 94 90 97 97 96 95 94 91 92 96 94 88 93 97 95 93 84 88 92 94 93 94
92 90 97 88 80 84 94 94 93 89 91 89 93 96 99 99 94 95 98 100 98 99 93 89 92 88 98 84 96 97 97 97 98 91 91 97 96 96 87 93 91 90 93 97
88 89 94 90 85 88 93 96 89 86 88 81 90 95 96 96 99 98 97 98 100 95 94 91 98 98 97 100 96 93 94 94 93 93 92 97 93 91 90 90 92 95 93 89
90 94 98 86 81 90 98 96 94 96 89 88 94 88 92 94 97 96 96 100 94 99 96 93 88 92 88 92 94 94 92 93 97 96 95 97 90 93 96 96 99 96 98 99
86 84 96 80 79 92 99 87 99 96 86 96 88 79 91 94 96 98 99 96 96 95 96 96 95 95 94 95 96 95 96 96 96 96 96 95 94 96 98 98 100 100 100 100

GFSNGP_925_rhum_255.txt.gz
RH
78 81 82 95 98 97 94 81 89 76 71 87 81 80 75 68 63 64 65 65 66 73 72 73 75 77 76 68 63 74 82 94 86 97 100 100 100 100 100 100 98 99 100 100
75 62 78 88 84 92 99 97 88 90 94 87 83 70 79 77 70 68 68 68 66 67 71 73 76 78 80 81 76 79 84 99 96 100 100 100 100 100 100 100 100 99 100 100
84 66 56 80 93 87 93 94 95 95 94 92 92 83 88 92 78 70 70 70 71 68 70 71 75 79 87 90 86 87 88 96 98 100 100 94 96 100 100 100 100 100 100 100
93 82 94 94 89 78 88 91 89 87 89 91 87 89 94 93 93 84 72 73 71 72 72 75 80 85 100 91 95 94 96 99 99 98 99 100 100 100 100 100 99 99 100 100
100 86 92 93 91 89 89 92 90 89 83 75 71 68 95 91 80 70 75 68 72 75 77 74 76 89 100 98 92 85 85 94 100 100 100 100 100 100 100 100 100 100 100 100
92 95 80 88 87 90 94 94 93 84 82 90 72 81 82 79 73 67 67 74 74 80 76 67 68 87 100 97 93 91 89 91 99 100 100 100 100 100 100 100 100 100 100 100
87 95 91 88 79 84 96 94 86 90 90 90 92 92 84 67 67 69 72 70 76 85 80 66 66 78 98 99 97 94 91 92 97 100 100 100 100 100 100 100 100 100 100 100
87 96 97 89 59 83 94 89 89 89 87 88 87 81 74 66 68 72 77 81 83 90 89 73 60 68 83 91 94 94 93 95 97 100 100 100 100 100 100 100 100 100 100 100
100 98 95 94 95 94 94 92 86 87 84 82 78 74 70 72 72 76 79 81 87 91 96 82 79 84 79 79 91 97 99 100 100 100 100 100 100 100 100 100 100 100 100 100
94 91 93 91 81 84 88 93 88 84 89 83 86 78 78 78 78 81 84 86 92 92 93 98 95 100 91 84 87 95 99 100 100 100 100 100 100 100 100 100 100 100 100 100
97 90 92 88 91 95 88 77 80 78 80 83 85 81 84 84 85 89 88 90 96 97 97 98 99 100 100 100 95 95 99 100 100 100 100 100 100 99 100 100 100 100 100 99
98 96 97 92 92 94 94 93 91 92 86 86 89 90 91 89 90 94 94 97 97 96 100 100 98 100 100 99 100 99 98 99 100 100 100 99 98 99 99 98 99 98 99 97
97 96 96 94 95 92 97 97 96 94 96 95 94 97 96 96 98 94 98 98 98 100 100 99 99 98 97 100 100 100 98 98 99 99 99 99 99 99 99 99 98 98 98 98
96 97 89 93 98 95 94 94 90 85 89 92 96 96 98 99 94 96 98 100 97 97 96 96 97 98 99 100 99 98 98 100 98 98 98 98 98 99 99 98 98 100 95 88
94 95 96 96 89 90 87 91 92 92 93 92 94 97 98 95 96 99 97 96 95 96 96 96 96 97 97 98 97 97 97 99 98 98 98 98 98 99 99 99 98 99 98 96
94 90 90 93 94 92 92 92 91 92 90 93 95 95 98 97 96 95 95 96 98 96 97 97 96 98 100 97 98 98 98 99 98 97 98 98 98 98 98 98 98 99 99 99
94 88 87 87 91 92 95 95 93 94 95 94 96 97 97 96 94 96 94 95 96 97 96 97 97 97 100 98 96 98 98 99 99 97 97 97 97 97 98 98 98 98 98 97
97 93 89 93 93 88 86 89 89 91 95 97 97 96 95 96 96 97 98 95 93 90 94 97 97 96 97 97 98 97 96 96 96 96 97 97 97 97 96 96 97 97 97 98
89 87 84 84 89 88 90 92 92 95 95 97 95 96 98 98 98 98 96 95 96 96 96 95 98 96 96 98 97 97 96 97 97 97 97 98 97 96 96 96 96 96 96 98
80 80 82 82 86 91 91 94 98 98 97 98 97 92 93 96 99 98 95 97 97 97 96 96 96 96 95 97 97 96 96 96 96 96 96 96 96 96 96 96 96 96 97 96
93 93 94 94 91 93 96 97 99 99 98 99 99 99 98 97 97 98 95 94 93 94 97 95 96 95 97 95 96 96 96 96 96 97 96 96 97 96 96 96 96 96 96 96
96 95 97 98 91 91 92 94 95 97 96 97 99 99 100 96 97 96 90 96 96 100 96 94 95 96 97 95 95 96 96 96 96 96 96 96 96 96 96 96 96 96 96 96
94 95 97 100 95 92 89 93 90 93 93 96 98 100 100 100 99 98 90 88 95 97 94 95 96 98 95 96 96 96 96 96 96 96 96 96 95 96 96 96 96 96 96 96
95 95 97 95 86 90 97 94 92 90 93 89 82 89 99 100 93 96 98 100 100 97 97 96 97 98 95 96 96 96 96 95 94 96 96 96 95 95 96 96 96 96 96 95
97 94 97 90 89 96 95 96 89 84 93 89 84 72 90 97 100 99 96 98 100 98 96 98 98 96 96 96 96 96 96 96 96 96 96 96 96 95 96 96 95 95 96 93
96 96 97 88 95 97 97 98 98 92 97 99 89 78 69 87 95 93 97 100 96 98 96 97 98 96 95 96 96 96 95 95 96 95 95 96 94 95 96 95 97 96 96 95
93 90 94 93 96 98 98 90 98 94 81 98 84 76 77 68 92 93 93 94 96 96 96 96 96 96 97 97 96 96 96 97 97 96 97 94 97 97 96 96 97 96 96 98

GFSNGP_925_rhum_258.txt.gz
RH
74 68 83 95 92 89 97 93 90 74 92 94 90 87 86 75 69 66 67 69 69 71 71 70 72 76 82 88 85 81 77 76 86 97 99 98 100 100 100 100 98 95 94 94
55 49 55 91 91 90 89 91 94 94 93 90 88 73 81 87 86 84 84 72 71 71 68 69 74 78 86 100 97 94 91 93 90 86 98 100 100 100 99 99 100 100 100 99
90 68 50 72 92 90 93 92 92 94 95 93 91 89 91 89 87 91 89 84 77 73 73 73 74 79 86 100 100 97 96 98 95 94 98 100 100 98 98 100 99 100 100 100
93 79 87 96 84 81 89 92 91 91 91 92 92 92 96 94 90 92 88 82 76 74 76 79 75 72 87 100 96 90 86 86 92 98 100 96 96 95 98 100 100 99 100 100
98 96 94 95 88 89 91 91 91 92 84 89 89 94 95 88 92 93 90 86 75 72 79 83 75 67 82 99 92 92 88 84 89 96 99 100 99 100 100 100 100 99 100 100
98 100 92 91 87 87 92 93 91 89 84 86 72 91 88 88 88 73 68 71 75 82 84 86 79 69 75 98 87 96 92 87 88 95 99 99 100 100 100 100 100 100 100 100
92 95 92 90 89 91 97 95 88 90 91 91 91 92 87 73 66 66 70 75 80 85 86 92 85 82 78 88 92 94 92 90 90 95 100 99 100 100 100 100 100 100 100 100
91 96 98 90 74 79 95 87 89 85 87 87 81 71 68 63 67 68 75 78 83 88 91 93 95 99 93 83 86 92 94 94 95 96 100 100 100 100 100 100 100 100 100 100
100 98 95 95 95 94 94 92 86 87 84 87 78 74 70 73 70 73 76 82 85 91 87 89 96 100 99 100 93 92 98 100 99 100 100 100 100 100 100 100 100 100 100 100
95 93 94 92 82 83 85 92 88 85 85 85 87 78 80 78 76 79 82 82 89 91 90 93 99 100 100 99 99 99 100 99 100 100 100 100 100 100 100 100 100 100 100 100
97 90 93 90 93 96 92 79 79 79 79 81 85 82 84 86 83 89 88 89 93 94 96 98 100 100 99 100 99 99 96 100 100 100 100 100 100 100 100 100 99 100 100 100
97 95 96 91 94 95 97 96 94 93 89 87 89 91 92 90 92 95 94 97 97 98 99 100 100 100 98 99 96 94 95 96 100 100 100 100 100 100 100 100 100 99 99 99
97 97 96 93 94 95 97 96 96 96 95 98 95 98 98 98 98 95 97 98 100 100 100 100 99 96 92 96 100 96 88 96 99 100 100 100 100 100 100 100 100 99 99 99
98 98 92 95 97 95 95 91 94 88 90 95 97 93 97 100 94 94 98 98 96 94 98 100 96 93 96 97 100 100 99 100 100 100 99 99 99 100 100 100 99 100 99 99
94 97 95 96 91 89 87 91 94 95 94 94 92 96 97 99 98 99 97 98 94 92 92 94 99 93 94 100 98 99 99 98 99 98 98 98 98 98 98 98 99 99 100 99
96 93 90 95 95 92 94 93 97 95 95 96 97 97 98 97 96 94 93 96 98 99 100 100 98 99 95 98 100 97 100 99 100 98 100 99 98 98 99 99 99 99 99 100
98 90 88 87 92 96 97 95 97 97 98 95 98 100 99 96 91 93 94 95 96 96 98 99 100 97 97 96 98 99 98 98 98 97 97 98 98 98 98 98 98 99 99 99
94 94 94 94 95 92 90 91 90 94 97 98 98 98 97 97 98 98 99 95 90 86 94 95 97 96 95 97 96 97 97 97 97 97 97 97 97 97 97 97 98 98 98 98
82 84 80 82 94 94 91 93 96 98 98 98 98 96 96 98 99 99 96 96 95 97 94 94 99 96 95 96 96 96 97 97 97 97 97 98 97 96 96 96 97 98 97 97
86 86 90 86 91 94 93 95 97 98 97 100 97 95 94 96 99 99 97 98 96 98 98 97 95 95 98 95 97 96 96 96 96 97 96 96 96 96 97 97 96 96 97 96
94 96 96 99 96 89 98 97 98 99 98 98 97 98 99 98 95 97 95 92 90 95 98 93 93 89 97 95 96 96 96 96 96 96 97 98 98 96 96 96 96 96 96 96
98 98 97 98 98 92 92 96 95 96 96 96 96 99 100 96 97 96 89 95 97 99 95 95 94 92 98 96 96 96 96 96 96 96 97 96 96 96 96 96 96 96 96 96
96 96 98 98 98 96 91 93 91 94 97 93 92 94 100 99 99 100 90 90 94 97 95 94 98 98 99 96 96 96 96 96 96 96 96 96 96 96 96 96 96 96 96 96
97 96 97 97 88 91 96 94 91 86 93 88 81 78 92 100 92 94 100 100 100 97 98 98 98 100 98 96 96 96 95 94 96 96 96 96 95 96 96 96 96 96 96 96
97 97 97 92 92 98 97 96 95 82 91 88 81 75 73 82 100 98 95 97 100 98 95 97 99 98 95 96 96 96 96 96 95 95 96 96 95 96 96 96 96 96 96 96
96 99 98 97 98 99 99 98 98 93 91 94 89 76 74 70 85 96 91 95 95 98 95 96 96 96 96 96 95 95 94 95 96 95 96 96 95 96 96 95 96 96 96 96
87 92 92 88 86 94 98 91 96 100 84 86 96 76 76 77 71 95 95 81 93 94 96 96 95 96 96 96 96 96 96 96 96 96 96 96 96 96 96 96 96 96 96 96

GFSNGP_925_rhum_264.txt.gz
RH
45 32 38 77 92 91 93 92 93 92 88 85 87 88 85 71 64 63 65 66 66 65 64 66 70 73 76 94 90 95 97 99 100 93 91 97 100 100 100 100 99 97 94 93
40 36 36 64 76 89 87 90 91 91 91 90 87 88 83 86 75 69 68 68 67 67 69 74 74 73 73 80 95 85 86 90 96 100 98 98 100 100 99 100 100 100 99 97
54 45 36 86 89 82 83 85 87 88 92 90 91 89 88 88 87 90 84 76 76 74 77 79 85 80 76 76 93 87 85 84 89 96 100 97 98 99 99 99 100 96 99 100
64 49 43 86 76 70 83 87 86 85 88 90 91 91 92 92 91 88 89 91 84 88 86 88 90 91 86 82 93 85 86 84 88 93 96 100 99 98 99 100 99 100 96 94
71 60 82 86 81 84 87 88 88 89 81 74 83 89 89 86 90 92 91 91 94 96 97 95 97 97 96 84 83 92 95 90 91 94 96 100 100 100 100 98 99 100 100 100
72 72 72 75 72 76 88 89 89 87 83 81 69 76 81 87 88 88 91 95 95 96 98 96 98 98 99 98 98 97 95 96 96 98 99 100 99 99 100 100 99 99 100 100
69 86 79 76 75 78 89 86 71 81 87 85 83 88 85 84 83 75 80 89 97 97 97 96 90 92 90 92 94 98 100 97 97 98 99 100 99 100 100 100 100 100 100 100
72 83 88 78 56 68 83 69 77 74 81 87 86 83 83 79 70 66 68 73 77 81 83 77 86 87 87 87 91 94 97 98 97 97 100 100 99 99 100 100 100 99 100 100
87 83 85 84 88 86 84 80 76 78 77 81 83 82 75 70 65 65 69 72 77 77 73 74 80 85 84 86 92 91 93 94 96 99 100 99 99 98 98 99 100 100 100 100
78 79 81 81 74 74 76 81 76 69 68 65 71 64 65 61 64 68 71 73 79 79 78 78 83 85 88 93 100 97 93 93 92 95 97 99 98 99 99 99 100 100 100 100
88 84 85 83 80 83 78 66 67 68 66 69 70 68 70 67 69 74 75 76 79 80 80 83 89 92 96 100 100 100 100 99 92 93 93 98 99 100 100 99 100 100 100 100
85 88 89 82 88 85 87 86 84 80 76 74 78 80 79 78 80 83 84 85 84 85 87 92 99 100 100 100 100 100 100 96 97 92 95 97 98 98 95 99 99 99 99 100
87 90 90 88 90 94 93 94 97 89 91 91 90 93 91 90 93 93 97 97 99 100 100 100 100 99 100 100 100 100 100 100 96 94 97 96 97 97 99 99 92 95 98 100
89 92 86 85 86 95 95 92 92 88 90 97 99 97 99 100 96 98 99 100 99 96 92 100 100 100 100 100 100 100 100 100 96 93 99 99 95 96 98 100 100 99 97 98
88 92 92 95 92 91 90 92 89 91 94 94 94 98 100 98 97 96 90 93 94 94 92 95 95 92 94 99 100 100 100 100 100 99 97 96 94 95 97 96 99 100 99 98
89 80 84 87 85 81 79 81 82 86 87 94 96 98 100 100 99 94 94 93 100 98 88 93 100 91 96 99 100 100 100 100 99 97 95 94 94 94 95 96 95 99 99 100
82 76 74 72 76 76 80 83 83 84 85 85 90 96 96 97 88 93 98 96 99 89 86 98 100 93 100 93 97 100 99 100 98 97 96 98 99 96 94 95 95 99 99 100
81 80 76 77 78 74 72 73 76 79 83 85 86 86 87 89 91 92 96 99 97 92 92 96 99 96 88 100 98 100 98 98 98 98 99 99 100 100 100 98 99 99 99 99
76 75 76 74 78 78 78 77 80 84 84 84 83 82 85 87 90 91 92 92 87 85 88 100 98 97 98 92 98 95 98 97 96 98 100 100 100 100 100 100 99 99 99 99
75 78 80 79 83 84 83 83 87 85 86 86 78 76 80 83 86 88 89 86 88 96 99 99 95 98 98 91 97 95 99 100 100 100 100 100 100 100 97 99 99 99 99 97
82 83 83 84 84 86 89 92 92 87 89 86 80 78 82 85 86 88 83 78 84 98 97 96 97 95 100 99 98 100 100 100 100 100 99 98 97 96 97 98 98 98 98 97
89 93 95 96 95 94 94 97 97 90 93 92 85 82 81 76 86 86 84 89 95 96 98 98 92 99 95 95 100 100 100 100 99 98 98 96 96 96 97 97 97 97 97 97
86 90 90 89 92 95 95 96 99 97 92 100 98 90 87 87 82 90 85 91 98 98 96 100 97 97 99 96 96 100 100 99 98 97 97 97 97 96 96 96 96 96 96 96
91 91 93 97 98 94 87 90 95 92 90 87 90 85 91 86 83 81 100 100 100 99 98 99 97 99 99 99 100 100 100 99 96 96 97 96 97 96 96 97 96 96 97 96
98 100 98 95 87 82 87 88 84 84 90 84 86 94 88 89 92 98 99 100 95 100 100 100 100 100 96 98 100 100 100 97 96 98 96 96 97 96 96 96 96 96 96 96
96 96 92 91 90 92 92 90 83 86 84 82 83 93 91 90 86 94 97 100 94 98 99 100 100 100 100 98 96 96 96 98 96 96 97 96 96 98 97 98 97 96 96 96
91 89 99 84 87 95 96 88 88 90 93 91 96 96 96 95 91 92 97 100 99 83 98 100 100 100 100 98 96 96 96 96 98 96 96 96 96 96 96 96 96 96 96 96

GFSNGP_925_rhum_270.txt.gz
RH
47 38 56 90 94 92 94 95 95 96 94 92 92 92 92 88 82 84 81 74 73 74 75 79 83 87 91 90 91 85 84 89 98 100 99 100 100 91 99 98 99 98 93 85
61 33 75 88 83 93 91 93 94 94 95 95 93 89 86 90 86 85 87 85 78 74 78 86 88 88 95 91 89 88 89 87 90 93 99 100 100 100 100 100 100 100 100 99
78 37 39 77 96 91 94 93 95 95 96 94 95 93 93 93 91 93 91 90 88 88 90 92 96 92 98 89 88 90 89 90 88 89 94 99 100 100 100 100 100 100 100 100
82 54 86 91 72 79 91 94 90 89 93 94 94 95 94 95 95 94 94 94 94 95 96 97 98 99 92 85 81 84 88 89 90 93 93 98 99 100 99 100 100 100 100 99
88 89 93 86 89 92 94 94 93 93 89 88 92 95 94 94 94 95 95 96 96 97 98 98 98 99 98 90 86 84 82 87 90 90 94 94 100 99 99 99 100 100 100 100
82 86 92 90 72 76 90 96 89 91 91 93 75 91 93 94 95 94 87 98 96 98 97 98 98 96 98 98 95 99 95 83 88 92 91 96 94 98 99 99 100 100 100 100
87 92 95 90 84 66 97 100 79 89 93 92 92 95 93 89 85 84 77 85 81 80 92 96 97 97 97 97 97 98 98 90 87 90 92 94 94 95 94 99 100 100 99 99
87 93 100 89 61 83 98 92 85 84 85 88 89 86 79 69 67 70 73 68 71 72 69 72 81 96 98 97 98 93 94 91 91 94 92 95 92 95 95 98 99 100 100 100
100 100 97 95 97 92 89 92 89 86 78 68 70 66 61 62 59 65 68 68 71 72 70 74 83 87 94 98 97 100 100 100 94 90 96 91 96 99 96 99 99 99 99 99
96 94 97 91 80 81 79 85 75 67 69 67 76 67 69 65 67 70 74 72 77 78 80 80 87 91 97 99 99 100 100 100 99 94 94 94 94 95 92 99 99 99 99 99
100 93 95 94 91 92 83 72 73 76 71 73 76 74 75 75 77 80 85 83 83 86 88 90 95 96 97 100 99 100 99 100 98 97 94 93 95 97 92 92 100 100 100 100
100 97 99 99 98 93 96 96 92 91 89 85 89 90 86 86 87 95 93 94 94 94 97 99 98 92 90 97 99 100 100 99 100 99 95 91 94 94 91 91 94 100 96 99
99 97 97 94 95 90 100 96 95 96 94 100 97 99 98 100 99 93 94 96 100 100 97 96 92 89 89 97 100 100 100 98 93 99 100 98 92 93 96 88 91 91 98 98
96 95 97 94 99 90 95 89 88 90 85 91 93 92 96 100 93 94 96 99 98 96 95 95 92 88 95 100 100 100 100 98 93 99 99 99 99 95 94 94 94 91 89 95
93 90 95 91 91 87 88 87 90 96 89 86 88 91 90 98 99 94 95 93 93 93 91 93 94 88 97 99 100 100 97 98 98 97 96 96 94 94 91 88 87 89 87 88
90 90 90 96 94 87 79 80 94 95 86 90 87 88 88 92 87 86 85 90 97 99 95 97 91 88 96 100 100 98 96 99 87 97 94 97 96 96 97 98 96 91 87 86
92 86 86 84 87 89 86 73 74 77 80 82 87 85 82 82 84 85 87 85 84 92 85 85 94 93 98 98 97 92 100 94 85 86 99 98 93 97 98 96 98 98 93 83
70 70 65 66 81 81 71 70 71 72 75 79 80 70 70 80 90 87 86 86 87 82 76 86 96 97 88 97 92 96 97 80 85 95 98 98 99 92 87 93 92 99 96 91
67 67 67 66 72 72 70 73 75 75 73 77 73 69 67 69 72 80 84 83 96 93 86 89 96 86 88 93 98 94 83 82 92 97 88 92 90 83 86 85 89 97 100 99
71 73 74 71 74 77 77 79 81 82 78 80 80 76 74 73 69 71 82 81 87 84 97 97 93 87 94 93 98 80 83 91 100 95 83 92 87 97 96 97 98 98 99 98
79 78 81 83 84 83 83 85 86 86 83 80 85 85 82 78 75 74 75 87 89 91 95 93 90 89 100 99 94 98 90 93 96 98 94 97 97 96 97 96 97 97 98 98
85 91 91 92 96 94 87 85 88 87 88 88 91 92 94 89 83 78 76 79 91 87 100 94 87 99 96 97 94 97 91 91 95 97 94 97 97 98 98 98 100 98 97 97
84 87 90 94 93 88 86 94 94 84 85 80 89 93 96 96 85 83 84 85 92 94 94 93 95 94 96 93 99 98 95 94 96 98 97 98 97 98 98 98 98 98 97 97
91 89 92 92 84 91 92 79 78 83 78 74 79 74 87 96 87 84 88 89 91 90 94 98 96 96 100 97 100 98 96 96 98 99 98 99 97 96 96 97 96 96 96 96
90 89 95 89 82 81 81 80 78 96 76 79 77 75 82 86 84 86 90 85 92 95 95 91 100 99 97 97 97 96 97 96 98 97 98 99 98 97 97 97 96 96 96 96
90 87 90 91 88 82 84 83 91 91 77 84 82 78 88 92 84 88 90 91 88 97 89 85 100 97 99 98 96 96 96 96 97 97 98 97 96 96 97 96 96 96 96 96
86 81 85 94 80 81 83 90 94 88 86 93 89 87 97 84 88 88 91 87 91 96 90 82 95 100 98 99 96 96 96 96 99 98 97 96 96 96 96 96 96 96 96 96